Wind_Speed
23 22 23 22 22 22 21 21 21 20 18 17 17 16 16 15 15 16 17 17 18 18 18 18 18 18 18 18 19 20 21 23 24 25 26 26 26 26 26 26 25 25 24 24 24 25 26 26 25 25 24 23 23 24 26 29 31 33 35 35 35 34 34 34 36 38 42 45 47 48 49 50 49 47 45 44 45 45 44 41 40 39 40 41 42 42
24 24 24 24 24 23 23 23 23 23 22 20 19 18 17 16 16 16 16 17 17 18 18 19 19 18 18 18 19 19 20 21 23 24 25 26 26 27 27 27 27 26 25 24 24 24 25 26 26 26 25 24 24 25 27 29 31 33 34 35 36 36 36 35 35 37 40 44 46 48 49 50 50 47 44 42 43 44 44 43 41 39 39 40 41 42
26 25 25 25 25 25 25 25 25 25 24 23 22 21 20 19 18 17 17 17 17 18 18 19 19 19 19 19 19 19 20 21 21 22 24 25 26 26 27 27 27 27 27 26 25 24 24 24 25 26 26 26 25 25 27 29 31 32 34 35 35 35 36 36 36 37 39 41 44 47 49 51 51 49 46 43 42 43 44 44 43 42 41 41 42 43
28 28 27 26 26 26 26 26 26 26 26 25 25 24 23 21 20 19 19 18 18 18 18 19 19 19 19 19 19 20 20 21 21 22 23 24 25 25 26 27 27 27 27 27 27 25 24 22 22 22 24 26 27 27 27 29 31 33 34 35 35 35 35 36 36 36 37 39 41 45 48 51 52 51 50 47 45 45 45 46 46 45 44 43 43 44
29 29 29 28 28 28 28 28 28 28 27 27 26 25 25 24 22 21 20 20 19 19 18 19 19 20 20 20 20 20 20 21 22 22 23 24 25 25 26 26 27 27 27 27 28 27 25 23 21 20 20 23 26 28 28 29 31 34 35 35 36 36 36 36 36 36 37 37 39 43 46 50 52 53 53 51 50 49 48 48 48 47 47 46 45 45
30 30 30 30 30 30 29 29 30 30 29 28 27 26 26 25 24 24 23 22 21 20 19 19 19 20 20 20 20 20 21 21 22 23 24 24 25 25 26 26 26 26 27 27 27 27 26 25 23 21 19 20 23 26 28 29 30 33 35 36 37 37 37 37 37 37 37 37 38 41 44 48 52 54 55 55 54 53 52 52 51 50 49 48 47 47
31 31 31 31 31 31 31 31 31 31 31 30 29 28 27 26 26 25 24 24 23 22 21 20 20 20 20 21 21 21 21 21 22 23 24 24 25 25 26 26 26 26 25 25 25 26 26 27 26 24 22 20 21 23 28 30 30 31 34 37 38 38 38 38 38 38 38 38 38 40 42 45 49 52 55 57 58 57 57 55 54 53 52 50 48 48
33 32 32 31 31 31 31 31 31 32 32 32 32 30 29 28 27 26 25 25 25 24 23 21 20 20 21 21 21 21 21 21 22 22 23 24 25 26 26 26 26 25 25 24 24 25 25 27 27 27 26 24 22 23 27 30 32 31 33 36 39 39 39 40 40 40 40 40 40 41 43 44 46 49 54 57 59 60 59 58 57 55 53 51 49 48
35 34 33 32 32 32 32 32 32 32 33 33 33 33 32 31 29 28 27 26 26 25 25 24 22 21 21 21 22 21 21 21 21 22 23 24 25 26 27 27 26 26 25 24 23 23 24 25 27 28 28 27 25 25 27 31 33 33 33 35 38 40 41 41 41 41 42 42 42 43 44 44 45 47 51 55 58 60 60 59 58 56 54 51 49 48
36 35 34 33 33 33 33 33 33 33 34 34 34 34 34 34 33 31 29 28 27 26 26 26 25 24 23 22 22 22 22 21 21 22 23 24 25 26 27 28 28 27 26 25 24 23 23 24 25 27 28 28 27 26 28 32 34 35 34 34 36 39 42 43 43 43 43 44 44 45 45 45 45 46 48 52 55 57 58 59 58 56 54 52 49 49
37 36 35 35 34 34 34 34 34 34 34 34 34 35 35 35 34 34 32 31 29 28 27 27 26 26 25 25 24 23 23 22 21 21 22 23 24 26 27 28 28 28 27 26 25 24 23 23 24 26 28 28 28 27 26 29 33 35 35 34 34 36 40 44 45 45 45 45 46 46 47 46 46 47 47 50 52 54 56 57 58 57 56 54 52 51
38 38 37 37 36 36 35 35 36 36 35 35 35 35 35 35 35 35 34 33 32 31 30 29 28 27 27 27 26 26 25 24 23 23 22 23 24 25 26 27 27 28 28 27 26 25 24 23 24 25 27 28 28 27 26 26 28 32 35 35 35 35 37 41 45 46 47 46 47 47 48 48 48 48 48 49 50 52 54 56 57 58 57 57 55 54
39 39 39 39 38 38 38 38 37 37 37 37 37 37 36 36 35 35 35 35 34 33 32 31 30 28 28 29 29 28 27 26 25 24 24 24 24 25 26 26 27 28 28 28 28 27 25 24 23 24 25 26 28 28 27 26 26 27 30 33 35 35 35 37 41 45 47 48 48 48 49 49 49 50 49 49 50 51 53 55 57 58 58 58 57 56
41 41 41 41 40 40 40 40 40 39 39 38 38 38 38 37 37 37 36 36 35 35 34 33 32 30 30 30 30 30 30 29 28 26 25 25 25 26 27 27 27 27 28 29 29 28 27 26 24 24 24 25 26 27 28 27 26 26 27 29 32 35 36 36 38 42 46 49 50 50 49 50 50 51 51 51 51 51 53 54 56 58 59 59 59 58
42 42 42 42 42 42 42 42 42 41 41 40 40 40 39 39 38 38 38 38 37 36 36 35 33 32 31 31 31 32 32 31 30 29 27 26 26 27 28 28 27 27 28 29 29 30 29 28 27 25 24 24 25 26 28 28 28 27 27 28 29 32 35 37 38 41 44 48 50 51 51 51 51 51 51 51 51 51 52 53 54 56 59 60 61 61
43 43 43 44 43 43 43 43 43 43 43 42 42 42 41 41 40 40 40 40 39 39 38 37 36 34 32 31 32 33 34 33 33 31 30 28 27 27 29 29 29 28 28 28 29 30 31 30 29 28 26 25 25 26 27 29 29 29 29 28 29 30 33 36 39 41 43 46 49 51 52 53 52 52 52 52 52 52 52 52 53 54 56 58 60 61
44 44 44 45 45 45 45 44 44 45 45 45 44 44 44 43 43 43 43 42 42 41 41 40 39 38 35 33 33 34 36 36 35 34 32 30 29 29 30 31 31 30 29 29 30 30 31 31 31 30 29 27 26 26 27 28 30 31 31 31 30 31 32 34 37 40 43 45 47 50 52 54 54 54 54 53 53 53 53 53 53 53 54 55 56 58
45 45 45 46 46 46 46 46 46 46 46 47 47 47 46 46 46 46 45 45 45 45 44 43 42 41 40 38 37 37 38 39 39 37 35 33 31 31 32 33 33 32 31 31 31 31 31 32 32 32 31 30 29 28 27 28 29 31 33 34 34 33 32 33 36 39 42 44 46 48 51 53 55 56 55 55 55 55 54 54 53 53 53 54 55 57
45 45 46 46 47 47 47 47 47 47 48 49 49 49 49 49 48 48 48 48 48 48 47 46 45 44 43 42 41 40 41 43 43 41 39 36 34 33 34 35 35 34 33 33 32 32 32 32 32 32 32 32 31 31 30 29 29 30 32 34 36 36 35 35 36 38 41 45 47 48 49 51 54 56 57 56 56 55 55 55 54 54 53 54 55 58
46 46 46 47 47 48 48 48 48 48 49 50 50 51 51 51 51 51 51 51 51 51 50 50 49 48 47 46 44 44 45 46 46 44 42 40 37 36 37 37 37 36 35 34 34 34 34 33 33 33 33 33 33 33 32 32 31 31 31 33 35 37 38 38 37 38 40 44 47 49 50 50 52 55 57 57 57 56 55 55 55 55 55 55 55 57
46 46 46 47 47 48 48 48 49 49 50 51 51 52 53 53 53 54 54 54 54 53 53 52 52 52 51 50 49 48 48 49 49 48 45 43 40 39 39 40 40 39 38 37 37 37 37 36 35 34 34 34 35 35 35 34 34 33 32 32 33 35 38 40 40 40 40 42 45 48 50 51 52 53 55 57 58 57 56 55 55 55 56 57 57 57
47 47 47 47 48 48 49 49 49 50 50 51 52 53 53 54 55 55 56 56 56 56 55 55 55 55 54 53 52 51 52 52 52 52 49 47 44 42 42 43 44 43 41 40 39 39 39 38 37 36 35 35 36 37 37 37 36 35 34 33 33 33 35 39 41 42 41 42 44 47 50 52 53 54 54 57 58 58 57 56 56 56 57 58 58 58
48 48 48 48 48 49 49 49 50 50 51 51 52 52 54 54 55 56 57 58 58 58 58 58 58 58 57 56 55 54 54 55 55 55 54 52 49 46 45 47 48 47 45 43 43 42 42 41 40 38 38 37 37 38 39 39 39 38 36 35 34 33 34 36 39 41 43 42 43 45 48 51 53 55 56 57 58 59 59 58 58 57 58 59 59 60
49 49 49 49 49 50 50 50 51 51 51 52 52 53 54 55 56 57 58 58 59 59 60 60 61 60 59 58 57 56 56 57 57 57 57 56 54 52 50 51 51 51 49 47 46 46 45 44 42 41 41 40 39 39 40 41 41 40 39 37 35 34 34 34 36 39 42 43 43 42 44 47 50 53 55 57 58 59 59 59 59 59 59 60 61 62
50 50 51 51 51 51 51 52 52 52 52 53 53 54 54 55 56 58 58 59 59 60 61 62 62 62 62 61 60 59 58 58 58 59 60 60 59 57 55 55 56 55 53 51 49 49 49 47 45 44 43 42 41 41 41 42 42 42 41 40 38 36 35 34 35 37 40 43 44 43 42 43 45 48 52 55 57 58 59 59 59 59 60 60 61 63
51 51 52 52 52 52 52 53 53 53 53 54 54 54 55 56 57 58 58 59 59 60 61 62 63 63 63 63 63 62 60 60 59 59 61 61 62 62 60 59 59 59 58 55 53 52 52 51 49 47 46 45 44 43 43 43 43 43 43 42 40 39 37 36 35 36 38 41 44 45 45 43 42 43 46 50 54 56 58 58 58 59 59 60 61 63
51 51 52 52 53 53 53 53 54 54 54 54 54 54 55 55 56 58 59 59 59 60 61 62 64 65 65 65 64 64 63 61 60 60 60 61 62 64 64 63 63 62 62 59 57 56 55 54 52 51 50 49 48 46 45 44 44 44 44 44 43 41 39 38 37 36 37 39 42 45 47 46 44 42 42 44 48 52 55 57 57 58 58 59 60 61
51 51 52 52 53 53 53 54 54 54 54 54 54 54 54 54 55 56 58 58 59 59 60 62 63 64 65 65 65 65 65 63 61 60 60 60 61 64 65 65 65 65 65 64 62 60 59 58 56 55 53 52 51 50 48 47 45 45 45 45 45 44 42 40 39 38 38 39 40 43 46 47 47 45 43 42 43 46 49 53 55 56 57 57 57 58
51 51 51 52 52 53 53 53 54 54 54 54 54 54 54 54 54 55 56 57 58 58 60 61 62 63 64 65 66 67 66 64 61 59 58 58 61 64 66 65 65 66 67 67 66 65 63 61 60 59 57 56 54 53 51 50 48 47 46 46 46 45 44 42 41 40 39 40 40 42 44 46 48 49 47 45 43 42 43 46 49 52 54 54 55 55
51 51 51 51 52 52 52 53 53 54 54 54 54 54 54 54 54 54 55 56 56 57 58 59 61 61 62 64 65 67 67 65 61 58 56 56 59 63 65 64 64 65 66 66 68 69 67 65 63 61 60 59 58 56 54 52 50 49 47 47 47 47 46 44 43 42 41 41 41 42 43 45 47 49 51 50 47 43 40 40 42 45 48 50 51 52
50 51 51 51 51 51 51 52 52 52 53 53 53 53 53 53 53 54 54 55 55 56 57 58 59 60 61 61 62 64 66 64 62 58 55 54 57 61 63 62 62 64 64 64 65 68 70 69 67 65 63 62 60 59 57 55 53 51 49 48 47 47 47 46 45 44 43 43 43 43 43 44 46 48 50 52 51 48 42 38 38 40 43 45 47 47
50 51 51 51 51 51 51 51 51 52 52 52 52 52 52 52 52 52 53 53 54 55 56 57 58 59 60 60 60 61 63 63 61 57 53 52 55 59 61 60 59 60 61 61 61 63 67 71 71 69 67 65 64 62 60 58 56 53 51 49 48 48 48 47 47 46 45 44 44 44 44 45 45 46 49 51 53 52 47 42 39 38 40 42 43 44
50 50 51 51 51 51 51 51 51 51 51 51 51 51 51 51 51 51 51 51 52 53 54 55 56 58 59 59 60 61 61 60 57 54 50 49 52 56 58 57 57 57 58 58 59 60 62 67 70 72 71 70 68 65 63 61 59 57 54 51 50 49 48 48 48 47 47 46 45 45 46 46 46 46 47 50 52 53 52 48 44 42 42 43 44 44
50 50 51 51 51 51 51 51 51 51 51 51 51 51 50 50 50 49 49 49 49 50 51 52 53 55 56 57 59 60 60 59 55 51 48 48 50 53 54 54 54 54 54 54 55 57 58 62 65 68 70 71 70 68 66 64 62 60 57 54 52 50 50 49 49 49 48 48 47 46 46 47 47 47 47 48 51 53 54 52 49 47 47 48 48 48
51 51 51 51 50 50 50 50 50 50 50 50 50 50 50 49 49 49 48 48 48 48 49 49 50 51 52 54 56 58 59 58 54 49 46 47 49 50 51 52 52 51 49 51 52 53 54 57 60 62 64 67 70 70 68 66 64 63 60 58 55 53 51 50 50 50 50 49 48 47 47 48 48 48 48 48 49 52 54 54 52 50 49 50 51 51
50 51 51 51 50 50 50 50 50 50 50 50 49 49 49 49 48 48 48 47 47 47 47 47 47 48 49 51 52 54 55 55 51 47 45 45 46 46 48 50 50 48 46 48 49 50 50 52 55 57 58 60 64 67 67 66 65 63 61 60 57 55 53 52 51 51 51 50 49 49 48 48 49 49 49 48 49 50 53 55 54 52 50 49 49 50
50 50 50 50 50 50 50 50 50 49 49 49 49 48 48 48 47 47 47 46 46 46 45 45 45 45 46 47 49 51 51 50 48 45 43 42 42 43 45 47 47 46 43 45 46 47 47 48 50 52 54 55 57 59 61 63 63 62 61 60 58 56 54 53 52 52 52 51 51 50 49 49 49 49 49 49 49 49 51 54 55 55 53 50 47 46
49 49 49 49 49 49 49 49 49 48 48 48 47 47 47 47 46 46 46 45 45 45 44 44 44 44 44 44 45 47 47 47 45 44 42 40 40 41 43 44 45 45 44 43 43 44 45 46 47 49 50 52 53 53 54 56 57 59 60 60 59 57 55 54 53 52 52 52 52 51 50 49 49 50 50 50 49 49 49 51 54 56 56 54 51 47
47 48 48 48 48 48 48 48 48 47 47 47 46 46 46 46 46 45 45 44 44 44 44 43 43 43 43 43 44 44 45 45 44 43 41 40 39 40 41 42 44 45 45 44 43 43 44 45 46 47 48 49 50 50 50 50 51 53 56 58 58 58 57 55 53 53 53 53 53 52 51 50 50 50 50 50 50 49 48 49 51 54 56 57 56 53
46 46 47 46 46 46 46 46 46 46 46 46 46 46 46 46 45 45 45 44 44 43 43 43 43 43 43 43 43 44 44 44 43 42 40 39 39 39 39 40 42 43 44 43 43 42 42 44 45 46 47 48 48 48 48 47 46 47 49 52 55 57 58 56 54 54 54 54 53 53 52 51 51 50 50 50 50 50 49 48 49 51 53 55 56 56
45 45 45 45 45 45 45 45 45 44 44 45 45 46 46 45 45 45 45 44 44 44 43 43 43 44 44 44 43 43 43 42 42 41 40 39 38 38 38 39 40 41 41 41 42 42 42 43 44 45 46 46 47 48 47 46 45 44 45 47 51 54 56 56 55 55 54 54 54 54 53 52 51 50 50 50 50 50 50 49 48 49 50 52 54 55
43 44 44 44 44 43 43 43 43 43 43 43 43 44 44 44 44 44 44 44 44 44 43 43 43 43 44 44 44 43 42 41 41 40 39 39 38 38 38 39 39 40 40 41 41 42 42 42 43 44 44 45 46 48 48 47 45 44 44 45 47 50 53 55 56 56 55 55 55 54 54 53 52 51 50 50 50 50 50 50 49 48 48 49 51 53
43 43 43 42 42 42 42 42 41 41 41 41 41 42 42 42 42 42 43 43 43 43 42 42 42 42 43 44 44 43 42 41 40 39 39 38 38 38 38 39 39 39 40 40 41 42 42 42 42 43 44 45 46 48 49 48 47 46 45 45 47 48 50 53 55 57 57 56 55 55 54 53 53 52 51 50 50 50 50 50 49 49 48 48 49 50
42 42 42 41 41 41 41 40 40 40 40 40 40 41 41 40 40 41 42 42 42 42 42 41 42 42 42 43 43 43 42 40 39 38 38 38 38 38 38 38 39 39 39 40 41 42 43 43 43 43 44 45 46 47 48 49 48 48 47 47 48 49 50 53 55 57 57 57 56 55 54 54 53 53 52 51 50 49 49 49 49 49 49 48 48 48
41 41 41 40 40 40 40 40 40 40 40 40 40 40 40 39 39 40 40 41 41 41 41 41 41 42 43 43 43 42 41 40 39 39 38 38 37 38 38 38 39 39 39 40 41 42 42 43 43 44 44 45 46 47 48 49 49 49 49 49 49 50 52 53 55 56 58 59 58 56 55 54 53 53 52 52 50 49 48 48 48 49 49 48 48 48
41 40 40 40 40 40 40 40 40 40 40 40 40 39 39 38 38 39 39 40 40 40 41 41 41 42 43 43 43 42 41 40 40 39 39 38 37 38 38 38 39 39 39 40 41 41 42 43 43 44 44 45 46 47 48 49 49 49 50 50 51 52 54 55 55 57 59 60 59 57 55 54 53 53 53 52 51 50 49 48 47 48 48 48 48 47
40 40 40 40 40 40 40 40 40 40 40 40 39 39 38 37 37 38 38 38 39 39 40 40 41 41 42 43 42 42 41 41 41 40 39 38 38 38 38 38 39 39 39 40 41 41 42 42 43 44 44 45 46 47 48 48 48 49 50 51 52 53 55 56 56 57 58 59 59 58 56 54 53 53 54 54 53 51 49 48 47 47 47 47 48 47
40 40 40 40 40 40 40 40 40 40 40 40 39 38 37 37 36 37 37 37 38 38 38 39 40 40 41 41 42 41 41 42 42 41 40 39 38 38 38 38 39 39 39 40 41 41 42 42 42 43 43 44 46 47 47 47 47 48 49 51 51 52 54 56 57 57 57 58 58 57 56 54 53 53 54 54 53 52 51 49 47 46 46 46 47 47
40 40 40 40 40 40 40 40 40 39 39 39 39 38 37 36 36 36 36 36 37 37 37 38 38 39 40 40 40 40 41 41 41 41 40 40 39 39 38 38 39 39 40 40 40 41 42 42 42 42 43 43 45 46 47 46 46 47 48 49 50 51 53 55 56 57 57 57 57 57 55 54 53 53 53 53 53 53 52 50 48 46 45 45 46 47
39 39 39 39 39 39 39 39 39 39 39 38 38 37 37 36 36 35 35 36 36 36 37 37 37 38 38 39 39 39 39 39 39 40 39 39 39 38 39 39 39 39 39 40 40 41 41 42 42 42 42 42 43 44 45 46 46 46 46 47 48 49 51 53 55 55 55 56 55 55 54 53 52 52 51 52 53 54 54 52 49 47 45 44 44 45
39 39 39 39 39 38 38 38 37 37 37 37 37 36 36 36 36 35 35 35 36 36 36 36 37 37 38 38 38 38 38 38 38 38 38 38 38 38 38 38 39 39 39 40 40 41 41 42 42 42 42 41 41 42 44 45 45 45 45 45 46 47 48 50 52 53 53 53 52 52 51 51 50 50 50 50 52 53 54 53 51 48 46 44 43 44
Wind_Direction
312 312 313 313 314 315 317 318 319 320 322 326 329 333 335 337 337 336 334 332 329 327 325 323 321 317 312 306 300 295 293 292 292 293 295 297 298 300 301 302 301 300 296 291 285 280 276 274 269 262 254 248 246 246 245 239 232 225 220 218 218 219 222 224 224 222 220 219 221 223 225 227 229 231 233 234 234 233 233 233 232 231 230 229 229 229
309 309 309 309 310 310 311 311 312 313 314 316 318 322 325 329 331 333 333 332 330 328 326 324 322 320 317 313 308 302 298 294 291 291 291 293 294 296 298 299 300 301 300 296 287 279 274 272 268 263 256 249 244 243 242 238 232 225 221 219 217 218 219 221 223 223 221 220 220 221 223 225 227 230 232 233 233 233 233 234 235 235 234 233 232 231
308 308 308 308 308 308 308 308 308 308 309 310 311 313 316 319 322 325 327 329 329 328 326 325 323 321 320 317 314 310 305 300 296 292 291 291 293 295 297 299 300 301 302 300 294 285 276 270 266 261 255 249 244 240 239 235 230 225 221 219 219 219 219 219 220 222 222 221 220 220 221 222 225 229 232 233 233 233 234 235 236 238 238 237 235 233
308 308 307 307 307 307 307 307 307 307 307 307 308 308 309 311 313 316 319 322 324 325 325 324 323 321 320 318 317 315 312 308 303 298 294 293 293 296 298 301 302 302 302 302 299 293 284 275 267 262 257 250 245 241 238 234 230 225 222 220 219 219 219 219 219 220 221 221 220 219 219 220 222 226 231 233 234 233 234 235 237 239 240 240 238 236
306 307 307 306 306 306 306 306 306 306 306 306 306 306 306 306 307 309 311 313 316 318 320 321 322 321 320 318 317 316 315 313 309 305 301 298 297 298 301 304 305 305 303 301 299 297 292 283 273 268 265 259 251 246 241 235 230 226 224 221 220 219 219 219 220 220 220 220 219 218 217 218 220 224 229 232 233 233 232 233 235 238 240 241 240 238
304 305 305 305 306 305 305 305 305 305 304 304 304 304 304 304 304 304 305 306 308 310 312 316 318 319 319 318 317 317 316 315 313 310 307 304 302 301 303 306 307 307 304 301 298 297 296 291 283 276 275 271 263 254 246 240 233 228 225 224 222 220 219 220 220 221 221 220 219 218 217 218 220 223 228 231 232 232 232 232 233 235 238 239 240 239
302 303 303 304 304 304 304 304 304 304 303 302 302 301 301 301 301 302 302 303 303 304 306 309 312 315 316 316 315 315 315 314 313 312 310 308 305 304 304 306 308 309 308 304 300 297 296 295 291 285 280 278 273 263 252 245 238 232 227 225 224 223 221 220 220 221 222 221 220 220 220 220 222 224 228 230 232 232 232 231 231 232 234 237 238 238
301 301 301 302 302 302 302 302 303 303 302 302 301 300 299 298 298 299 300 301 301 301 302 303 304 307 309 310 311 311 312 312 311 311 310 308 307 305 305 306 308 310 311 309 305 300 296 295 294 291 287 282 274 264 254 247 243 238 232 228 226 226 224 222 221 221 221 222 222 222 223 223 224 226 228 231 232 233 233 232 231 231 232 235 237 237
300 300 300 301 301 301 301 301 301 301 301 301 301 301 300 298 297 296 297 298 299 300 300 300 300 300 302 303 305 306 307 309 309 309 308 308 306 305 305 306 307 309 312 312 309 304 299 296 294 293 292 287 278 264 252 245 242 241 237 232 228 227 227 225 224 222 221 221 222 223 224 225 226 227 229 231 232 233 233 233 232 232 232 234 235 236
299 299 300 300 300 301 301 301 300 300 300 301 301 301 301 300 299 297 295 296 296 297 298 298 298 297 297 297 299 300 302 304 306 307 307 307 307 306 306 306 307 309 311 312 311 309 304 300 296 294 294 292 286 274 257 245 240 240 239 237 233 229 228 227 226 225 223 221 222 223 225 226 227 228 229 231 232 233 233 232 232 232 232 234 235 235
297 298 299 299 299 300 300 300 300 300 300 300 299 300 300 300 300 299 297 295 294 294 294 296 297 298 297 296 295 296 297 298 300 302 303 304 305 305 305 306 307 309 310 311 311 310 308 304 299 296 294 294 292 286 273 256 246 241 239 239 237 234 230 229 228 228 227 225 223 223 224 226 227 229 230 231 231 232 231 231 231 230 231 232 233 234
297 297 298 299 299 299 299 299 299 299 299 299 298 297 297 298 298 299 298 297 295 294 293 293 295 297 298 298 296 295 295 295 296 297 298 300 301 302 303 304 305 307 308 309 309 309 308 305 302 298 295 293 292 291 286 275 261 250 244 241 240 238 235 231 230 229 229 228 226 225 224 225 227 229 230 231 231 231 231 230 230 229 230 230 232 232
296 297 298 298 299 299 299 299 299 299 298 299 298 298 298 298 298 298 299 298 297 295 294 293 294 295 298 299 298 297 295 295 294 294 296 297 298 298 299 300 302 303 305 306 306 306 305 304 302 299 296 294 292 290 288 284 277 267 256 248 244 241 238 235 232 231 231 230 230 228 226 226 226 228 229 231 231 232 231 231 230 230 230 230 231 232
296 297 298 298 299 299 300 300 299 299 299 300 300 300 299 299 299 299 298 297 297 296 295 295 294 295 296 298 298 298 296 295 293 292 293 294 296 297 297 297 298 300 301 303 304 304 303 302 301 299 296 294 291 289 286 282 278 274 268 260 251 245 241 238 236 233 231 231 231 231 229 228 227 227 229 230 231 232 232 232 231 230 230 230 231 231
296 297 298 298 299 299 300 300 300 300 300 301 301 300 300 300 300 299 299 298 297 296 295 294 293 292 294 297 298 297 296 295 293 291 290 291 293 295 295 295 294 296 298 300 301 302 301 301 300 298 296 294 291 288 285 280 275 271 268 266 260 253 246 242 239 237 234 232 232 232 231 231 230 229 229 229 231 232 233 233 233 232 232 232 231 231
297 297 298 299 299 299 300 300 301 301 301 301 301 301 301 301 301 301 300 299 298 297 296 295 293 290 289 292 295 296 296 294 292 290 289 288 290 293 294 293 292 292 294 296 298 299 299 299 299 297 295 293 291 288 285 281 276 270 265 263 262 260 254 248 243 240 237 235 233 233 233 232 232 231 230 230 230 231 233 234 234 234 234 234 233 232
297 298 298 299 299 299 300 300 301 302 302 302 302 302 302 302 302 302 302 301 300 299 298 298 296 294 290 289 291 294 295 294 292 289 287 287 289 291 292 292 291 290 290 292 294 296 297 297 297 296 295 293 291 288 285 281 278 274 268 264 261 260 258 254 248 244 240 238 236 234 233 233 233 233 232 231 231 231 232 234 235 235 236 235 235 234
297 298 298 299 299 299 300 301 301 302 302 302 302 302 302 303 303 303 303 303 302 301 301 300 299 298 296 294 293 294 296 296 294 290 287 286 287 289 291 292 291 290 289 290 291 292 294 295 296 296 295 293 291 289 285 282 279 275 272 267 264 261 258 255 251 247 243 240 238 236 235 234 234 234 233 233 233 232 233 234 235 235 236 236 236 235
297 297 298 298 299 299 300 301 302 302 302 302 303 303 303 303 304 304 304 304 303 303 303 302 301 300 299 297 296 296 297 297 296 293 289 286 286 287 290 291 290 289 288 288 289 289 290 291 293 295 295 294 292 290 287 284 281 277 274 270 267 264 261 256 252 248 244 241 238 237 236 235 234 234 234 234 234 234 234 234 234 235 236 237 237 237
296 297 297 298 298 299 300 301 301 302 302 302 303 303 304 304 304 304 304 304 304 304 304 304 303 302 301 299 298 298 299 299 297 295 291 287 286 287 289 290 290 288 287 287 287 287 287 288 290 292 294 294 293 291 288 286 283 280 277 274 270 267 264 259 254 249 245 241 238 237 236 236 236 235 235 235 235 235 235 235 235 235 236 237 239 239
295 296 296 297 298 299 299 300 301 301 302 302 303 303 304 304 304 304 304 304 304 304 304 304 304 303 303 302 302 301 301 301 299 296 292 287 285 286 288 290 289 288 286 286 286 286 286 286 287 289 291 292 292 291 289 286 284 282 279 277 274 271 268 264 259 253 246 241 238 236 235 235 235 235 235 235 235 235 236 236 235 235 236 237 239 240
294 295 295 296 297 297 298 299 299 300 301 302 302 303 303 304 304 304 304 304 304 305 305 305 304 304 304 304 303 303 302 302 301 298 294 290 286 285 287 289 289 288 286 285 285 285 284 285 285 286 288 289 290 289 288 287 285 283 281 279 277 274 271 268 264 259 252 245 239 236 234 234 234 235 235 235 236 236 236 237 237 237 237 238 239 240
294 294 295 295 296 296 297 298 298 299 300 300 301 302 302 303 303 304 304 304 305 305 305 305 304 304 304 304 304 304 303 303 302 300 298 294 290 287 287 288 289 288 286 285 285 284 283 283 283 284 285 286 287 288 287 286 285 283 281 280 278 276 274 271 268 264 259 252 244 238 235 233 233 233 234 234 235 235 236 237 238 238 239 240 240 241
294 294 294 295 295 296 296 297 297 298 299 300 300 301 302 302 303 303 303 304 305 305 305 304 304 304 304 304 304 304 304 304 303 302 300 297 294 290 289 290 290 289 286 285 285 284 284 283 282 282 283 284 284 285 285 285 284 283 282 280 278 276 274 272 270 267 264 259 253 245 238 235 234 233 233 233 234 234 235 236 237 238 239 241 241 242
293 294 294 295 295 296 296 297 297 298 299 300 300 301 301 302 302 302 303 304 304 305 304 304 304 304 304 304 304 304 304 304 303 303 302 300 297 294 292 292 292 291 287 284 284 284 284 283 282 281 282 282 282 283 283 283 283 283 282 280 278 276 273 271 269 268 265 263 259 253 246 240 237 235 234 233 233 234 234 235 235 236 238 239 241 242
293 294 294 295 296 296 297 297 298 299 299 300 301 301 301 302 302 302 302 303 304 304 304 303 303 303 303 303 303 303 303 303 303 303 303 302 299 296 294 294 294 292 289 286 284 284 284 283 282 281 281 281 281 281 281 281 281 281 281 280 278 276 273 271 269 267 265 264 262 258 253 247 242 238 236 234 234 234 234 235 235 236 237 238 240 241
292 293 294 295 296 296 297 298 298 299 300 300 301 301 302 302 302 302 302 303 303 303 303 302 302 302 302 302 302 302 302 302 303 303 303 302 301 299 297 296 295 294 291 288 285 285 285 284 283 282 281 281 280 280 279 280 280 280 280 279 278 276 273 270 268 266 265 263 262 261 258 253 249 244 240 237 234 233 233 234 235 236 237 238 240 241
292 293 294 295 296 297 297 298 298 299 299 300 300 301 301 301 302 302 302 302 302 302 301 301 301 302 301 301 301 301 301 302 302 303 302 302 301 299 298 297 296 295 293 290 287 285 285 284 284 283 282 281 280 280 279 279 279 278 278 278 277 276 273 271 268 266 264 262 262 261 260 257 254 250 246 241 236 232 231 231 233 234 236 238 239 242
292 293 294 295 296 296 297 298 298 299 299 300 300 300 300 301 301 301 301 301 301 301 300 300 300 300 300 300 299 299 300 301 302 302 302 302 300 299 298 298 297 296 295 293 289 286 285 284 284 284 283 281 281 280 279 279 278 277 277 276 276 275 274 271 268 265 263 262 261 260 260 259 257 255 251 246 240 233 229 227 228 230 233 236 238 241
293 293 294 295 295 296 297 297 298 298 299 299 299 299 299 299 299 299 299 299 299 299 299 299 299 299 299 299 299 299 299 299 300 301 302 301 299 298 298 298 297 296 296 295 292 289 286 283 283 284 283 282 281 280 279 278 278 277 276 275 275 274 273 271 268 266 263 261 260 259 259 259 258 257 255 251 245 238 231 226 225 227 230 233 235 238
293 293 294 294 295 295 296 296 296 297 297 298 298 298 298 298 298 298 298 298 298 298 298 298 298 298 298 298 298 298 298 298 299 300 301 301 299 297 297 297 297 296 296 296 295 292 288 284 282 282 282 282 281 279 279 278 277 276 275 274 273 273 272 270 268 266 263 261 260 259 258 258 257 257 256 254 250 244 236 230 226 226 228 230 233 235
293 293 294 294 294 294 295 295 295 295 295 295 296 296 296 296 296 296 296 297 297 296 296 296 296 296 296 297 297 297 297 297 298 300 300 300 298 297 296 296 296 295 295 295 294 293 291 288 285 282 282 282 281 279 278 277 277 276 275 273 272 271 270 269 268 266 263 261 259 258 258 257 257 257 256 255 252 248 242 236 231 229 229 231 232 233
293 293 293 293 294 294 294 294 294 294 294 294 294 294 294 294 294 294 294 295 295 295 295 295 295 295 295 295 295 295 295 296 298 298 299 298 297 296 295 295 295 294 294 294 293 292 292 290 288 285 284 283 281 280 278 277 276 275 274 273 271 270 269 268 266 265 263 261 259 258 257 257 256 256 256 256 254 251 246 241 236 233 233 233 234 235
293 293 293 293 293 293 293 293 293 293 293 293 293 293 292 292 292 292 292 292 292 293 293 294 294 294 294 294 294 293 294 295 296 297 297 296 295 295 295 294 294 293 293 292 292 291 290 290 289 288 286 284 282 281 280 278 277 275 274 273 271 269 267 266 265 263 262 260 259 257 256 256 256 256 255 255 254 253 250 245 241 237 235 236 237 238
293 293 293 293 293 293 293 293 292 292 292 292 292 292 291 291 291 290 290 290 290 290 291 292 292 293 293 293 293 293 293 293 294 296 296 295 294 294 294 294 293 293 292 291 290 289 289 288 288 288 287 285 283 281 280 279 278 276 274 273 271 269 267 265 264 262 261 259 258 256 255 255 255 255 255 255 255 254 253 250 246 242 239 237 237 238
295 294 294 294 294 294 293 293 293 292 292 292 291 291 291 290 290 289 289 289 289 289 289 290 290 291 292 292 292 292 293 293 294 295 295 294 293 293 293 293 292 292 291 290 289 288 287 287 287 286 286 285 284 282 281 279 278 276 274 273 271 269 267 265 263 261 260 258 256 255 254 254 254 254 255 255 255 254 254 253 251 247 243 240 238 237
296 296 296 296 296 295 295 295 294 294 293 293 292 292 291 291 290 290 289 289 289 288 288 288 288 289 289 290 290 291 291 292 293 293 293 292 292 292 291 291 291 290 289 288 287 286 286 285 285 285 284 283 283 282 281 280 278 277 274 272 270 268 266 264 262 260 259 257 256 254 252 252 252 252 253 254 254 254 254 254 253 252 249 246 242 239
297 297 298 298 298 297 297 297 296 296 295 294 293 293 292 291 290 290 289 289 288 288 287 287 286 286 286 287 288 289 289 290 291 291 291 291 290 290 290 290 289 289 287 286 285 285 284 283 283 282 282 281 280 280 280 280 279 277 275 272 270 267 265 263 261 259 257 256 255 253 252 250 250 250 251 252 253 253 254 254 255 254 253 251 248 245
298 298 298 298 298 298 298 298 297 296 295 294 293 292 291 291 290 289 288 288 287 286 286 285 284 283 283 283 284 285 286 287 288 288 289 289 289 288 288 288 287 287 286 284 283 282 282 280 279 279 279 278 278 278 277 277 276 276 274 272 270 267 265 262 259 257 256 255 254 253 251 249 248 248 248 249 250 251 252 253 254 255 255 254 253 250
298 298 298 298 298 298 297 297 296 296 295 294 293 292 291 290 289 288 287 286 285 284 283 282 281 281 280 280 280 281 282 283 285 286 287 287 287 287 286 286 285 285 284 283 282 280 279 278 277 277 276 276 275 275 273 272 271 271 271 270 269 267 263 261 258 256 254 253 253 252 250 248 247 246 246 247 248 249 250 250 252 253 255 256 255 254
297 297 297 297 297 296 296 296 295 295 295 294 293 292 291 290 289 288 287 286 284 283 282 281 280 279 278 277 277 278 279 280 282 283 284 285 285 285 284 284 284 283 283 282 281 279 277 276 276 275 274 273 273 272 271 269 266 264 264 264 265 264 262 260 258 255 253 252 251 251 250 248 246 245 244 244 245 246 247 248 249 250 252 254 255 256
296 296 296 296 296 296 295 295 295 295 294 294 293 292 292 291 291 290 288 287 285 284 282 281 279 278 277 276 275 275 276 277 279 281 282 282 283 283 283 283 283 282 282 281 280 278 276 275 274 273 273 271 271 270 269 267 264 260 258 258 259 259 260 259 258 256 253 251 250 249 249 248 246 244 243 243 243 244 244 245 246 248 249 251 253 254
296 296 296 296 296 296 296 295 295 294 294 293 293 292 292 291 291 290 289 287 286 285 283 282 280 278 277 276 275 274 274 275 276 278 279 280 281 281 281 281 281 281 280 280 279 278 276 275 273 272 271 270 269 269 269 267 264 260 256 254 253 254 255 255 255 254 253 251 249 248 248 247 246 245 243 242 241 241 242 243 244 245 246 247 249 251
297 297 297 297 296 296 296 295 295 294 294 293 292 291 291 290 290 288 287 286 285 284 283 282 280 279 277 276 275 275 275 274 274 275 276 277 278 279 279 280 279 279 278 278 277 277 276 275 274 272 271 270 269 269 268 268 266 262 258 255 253 253 252 251 252 252 252 251 249 248 247 247 246 245 243 242 240 240 240 241 242 243 243 245 246 248
297 297 297 296 296 296 295 295 294 294 294 293 292 291 291 290 289 287 286 285 284 283 282 281 280 279 278 277 276 276 276 275 275 274 275 275 276 277 278 278 277 277 276 276 275 275 275 275 274 273 272 271 270 269 268 268 267 265 261 258 255 252 250 250 251 252 251 251 250 248 247 247 247 246 244 242 240 239 239 239 239 240 241 242 244 245
297 296 296 296 296 295 295 294 294 294 293 293 292 291 291 290 289 287 285 284 283 282 281 279 279 278 277 277 277 277 277 276 276 275 275 275 275 276 277 277 276 276 275 275 274 273 273 273 273 273 273 272 270 268 267 268 268 267 264 261 259 256 254 252 251 251 252 253 253 251 249 248 247 247 245 243 240 239 238 237 237 238 239 241 242 243
296 296 295 295 295 295 294 294 294 294 293 293 292 292 291 290 289 287 285 284 282 281 280 279 278 277 277 277 277 277 277 276 276 275 275 275 275 276 276 276 276 276 275 274 273 273 272 272 272 272 273 272 271 269 268 268 269 268 267 265 263 260 258 255 254 254 255 257 258 256 253 251 249 248 246 244 242 239 238 237 236 236 237 239 240 241
295 295 295 295 294 294 294 294 294 294 293 293 292 292 291 290 289 288 286 285 284 282 281 280 279 278 277 276 276 276 276 276 276 275 275 275 275 275 275 275 275 275 274 274 273 272 272 271 271 271 272 272 272 271 270 270 270 269 269 268 267 265 261 259 258 259 260 261 261 260 259 257 254 250 248 246 244 241 238 236 235 235 236 237 238 239
294 294 294 294 294 294 294 294 294 294 293 293 292 292 291 290 289 288 287 286 285 284 282 281 280 279 278 277 277 276 276 276 276 276 276 275 275 275 275 275 275 274 274 273 273 272 271 271 270 270 270 271 272 273 273 272 271 271 271 271 271 268 265 263 262 263 264 265 265 264 264 261 257 254 252 250 246 243 240 237 235 234 235 235 237 238
293 293 293 293 293 293 293 293 293 292 292 292 292 291 291 290 289 288 287 286 286 285 284 283 282 281 280 279 278 278 278 277 277 276 276 276 276 275 275 275 275 275 274 274 273 273 272 271 270 269 269 270 271 273 274 274 273 273 273 273 272 271 270 268 267 267 267 269 269 269 268 265 261 258 256 253 249 246 242 239 236 234 234 234 236 237
294 293 293 292 292 292 291 291 291 290 290 290 290 290 289 289 288 288 287 286 286 285 284 284 283 282 281 281 280 280 279 278 278 277 276 276 275 275 275 275 275 275 275 275 274 274 273 273 272 271 270 270 270 272 274 275 276 275 275 274 273 273 273 272 271 270 270 272 273 274 273 270 266 262 259 255 252 249 245 242 238 235 234 234 235 236
Height
3099 3098 3098 3097 3097 3097 3096 3095 3095 3094 3094 3094 3094 3093 3093 3092 3091 3090 3089 3088 3088 3087 3086 3085 3085 3084 3084 3083 3083 3082 3081 3081 3080 3080 3079 3078 3078 3077 3077 3076 3076 3075 3075 3075 3075 3074 3074 3073 3073 3074 3074 3074 3074 3075 3075 3075 3076 3076 3077 3077 3077 3078 3080 3081 3082 3084 3086 3087 3089 3092 3095 3097 3099 3102 3104 3106 3108 3109 3111 3113 3115 3116 3117 3118 3119 3120
3097 3097 3096 3096 3095 3095 3094 3094 3093 3093 3092 3092 3092 3092 3091 3091 3090 3089 3089 3088 3087 3086 3085 3084 3084 3083 3083 3082 3081 3081 3080 3079 3079 3078 3078 3077 3077 3076 3075 3075 3075 3074 3074 3073 3073 3073 3073 3072 3072 3072 3072 3073 3073 3073 3074 3074 3074 3075 3075 3075 3076 3077 3078 3079 3081 3082 3083 3084 3086 3088 3091 3093 3096 3098 3100 3103 3105 3107 3108 3110 3112 3114 3115 3117 3118 3118
3095 3094 3094 3094 3093 3093 3092 3092 3091 3091 3090 3090 3090 3090 3089 3089 3089 3088 3088 3087 3086 3085 3084 3083 3083 3082 3081 3081 3080 3079 3079 3078 3078 3077 3077 3076 3075 3075 3074 3073 3073 3073 3073 3072 3072 3071 3071 3071 3070 3070 3070 3071 3071 3072 3072 3072 3073 3073 3073 3074 3075 3075 3076 3078 3079 3080 3081 3082 3083 3085 3088 3090 3093 3094 3097 3099 3101 3103 3105 3107 3109 3111 3113 3114 3115 3116
3093 3092 3092 3092 3091 3091 3090 3089 3089 3088 3088 3088 3088 3088 3087 3087 3087 3087 3086 3085 3085 3084 3083 3083 3082 3081 3080 3079 3079 3078 3078 3077 3076 3076 3075 3074 3074 3073 3073 3072 3072 3071 3071 3071 3070 3070 3069 3069 3068 3068 3068 3068 3069 3069 3070 3071 3071 3072 3072 3072 3073 3074 3074 3076 3077 3078 3079 3080 3081 3082 3084 3087 3090 3092 3093 3095 3098 3100 3102 3104 3106 3108 3110 3112 3113 3114
3091 3090 3089 3089 3089 3088 3088 3087 3087 3086 3086 3086 3086 3085 3085 3085 3085 3084 3084 3084 3083 3083 3082 3081 3080 3079 3079 3078 3078 3077 3076 3076 3075 3074 3073 3073 3072 3072 3071 3070 3070 3069 3069 3069 3069 3069 3068 3067 3067 3066 3067 3067 3067 3067 3068 3069 3070 3070 3070 3070 3071 3071 3072 3073 3074 3076 3077 3078 3079 3081 3083 3084 3087 3089 3090 3092 3094 3096 3098 3101 3103 3105 3107 3109 3110 3111
3089 3088 3087 3087 3086 3086 3085 3085 3084 3083 3083 3083 3083 3083 3083 3083 3083 3083 3082 3082 3082 3081 3081 3080 3079 3078 3077 3077 3076 3076 3075 3074 3073 3073 3072 3071 3071 3070 3069 3069 3068 3068 3068 3068 3068 3068 3067 3066 3065 3064 3065 3065 3066 3066 3066 3067 3067 3068 3068 3068 3068 3069 3069 3071 3072 3073 3074 3075 3077 3078 3080 3082 3084 3086 3087 3088 3090 3092 3094 3097 3099 3102 3103 3105 3107 3108
3086 3086 3085 3084 3084 3083 3083 3083 3082 3081 3080 3080 3080 3080 3081 3080 3080 3080 3080 3079 3079 3079 3079 3078 3078 3077 3076 3075 3075 3074 3074 3073 3073 3072 3071 3070 3069 3068 3068 3068 3067 3067 3066 3066 3066 3066 3066 3065 3064 3063 3062 3063 3064 3064 3065 3064 3064 3065 3066 3067 3067 3067 3067 3068 3069 3071 3072 3073 3074 3076 3078 3079 3081 3083 3084 3085 3086 3088 3090 3093 3095 3098 3100 3102 3104 3105
3083 3083 3083 3082 3082 3081 3081 3080 3079 3078 3078 3077 3077 3077 3077 3078 3078 3078 3078 3077 3077 3077 3076 3076 3076 3076 3075 3074 3073 3073 3072 3072 3071 3070 3069 3068 3068 3067 3067 3066 3066 3065 3065 3064 3064 3064 3064 3063 3063 3062 3061 3060 3061 3062 3063 3063 3062 3062 3063 3064 3065 3065 3065 3065 3066 3068 3070 3071 3073 3074 3075 3077 3078 3080 3081 3082 3083 3084 3086 3088 3091 3093 3096 3098 3100 3102
3080 3080 3080 3080 3079 3078 3078 3078 3078 3077 3075 3074 3073 3073 3073 3073 3074 3075 3075 3075 3075 3074 3074 3074 3074 3074 3073 3073 3072 3071 3071 3070 3069 3068 3068 3067 3066 3065 3065 3064 3064 3063 3063 3063 3062 3062 3062 3062 3061 3061 3060 3059 3058 3058 3059 3060 3060 3061 3061 3062 3063 3064 3064 3064 3064 3064 3066 3068 3070 3072 3073 3074 3076 3077 3078 3079 3080 3081 3083 3085 3088 3090 3092 3094 3097 3098
3078 3078 3077 3077 3077 3076 3075 3074 3074 3074 3073 3072 3071 3071 3070 3069 3070 3070 3071 3072 3072 3072 3071 3071 3071 3071 3071 3070 3070 3069 3069 3068 3068 3067 3066 3065 3064 3063 3063 3062 3062 3062 3061 3061 3060 3060 3060 3060 3059 3059 3059 3058 3057 3057 3056 3056 3057 3058 3059 3059 3060 3061 3062 3063 3063 3063 3063 3064 3066 3068 3070 3072 3073 3074 3075 3076 3077 3078 3080 3083 3084 3086 3089 3091 3093 3095
3075 3075 3074 3074 3074 3074 3073 3072 3071 3071 3071 3070 3069 3069 3068 3067 3067 3066 3067 3067 3068 3068 3069 3069 3068 3068 3068 3067 3067 3067 3067 3067 3066 3066 3065 3064 3063 3062 3062 3061 3060 3060 3059 3059 3058 3058 3058 3058 3058 3057 3057 3057 3056 3056 3055 3055 3054 3055 3055 3056 3057 3058 3059 3060 3061 3061 3061 3061 3061 3063 3066 3068 3069 3071 3072 3073 3073 3074 3076 3078 3080 3082 3085 3088 3089 3091
3072 3072 3071 3071 3071 3071 3070 3070 3069 3068 3068 3067 3067 3066 3066 3066 3065 3064 3063 3063 3064 3064 3064 3065 3066 3065 3065 3064 3064 3064 3064 3064 3064 3063 3063 3062 3062 3061 3060 3060 3059 3058 3058 3057 3057 3057 3056 3056 3056 3055 3055 3055 3055 3055 3054 3054 3053 3053 3053 3053 3054 3055 3056 3057 3058 3059 3059 3059 3059 3059 3061 3063 3065 3067 3068 3070 3071 3071 3073 3074 3076 3078 3080 3083 3085 3087
3069 3068 3068 3068 3068 3068 3067 3066 3066 3065 3065 3064 3064 3063 3063 3063 3062 3061 3061 3060 3060 3060 3060 3061 3062 3062 3062 3061 3061 3060 3061 3061 3061 3061 3060 3060 3059 3058 3058 3058 3058 3057 3056 3056 3055 3055 3054 3054 3054 3054 3053 3053 3053 3053 3053 3053 3053 3052 3052 3051 3051 3051 3052 3054 3055 3057 3057 3058 3058 3058 3058 3059 3061 3063 3065 3066 3068 3069 3070 3071 3073 3074 3076 3078 3080 3082
3065 3065 3065 3065 3064 3064 3063 3063 3062 3062 3061 3061 3060 3060 3059 3059 3059 3058 3058 3057 3057 3057 3057 3057 3058 3059 3059 3059 3058 3057 3057 3057 3058 3058 3058 3058 3057 3056 3055 3055 3055 3055 3054 3053 3053 3053 3053 3052 3052 3052 3052 3052 3052 3052 3052 3051 3051 3051 3051 3051 3050 3050 3050 3051 3053 3053 3054 3055 3056 3056 3056 3056 3057 3058 3060 3063 3064 3065 3067 3068 3070 3071 3072 3073 3076 3078
3062 3062 3061 3061 3061 3060 3060 3059 3058 3058 3058 3058 3057 3057 3056 3056 3056 3055 3054 3054 3053 3054 3054 3054 3054 3056 3056 3056 3055 3054 3054 3054 3054 3054 3055 3055 3055 3054 3053 3053 3053 3053 3053 3052 3051 3050 3050 3050 3050 3050 3050 3050 3049 3049 3050 3049 3050 3050 3050 3050 3049 3049 3048 3049 3049 3050 3051 3052 3053 3053 3054 3054 3054 3055 3056 3058 3060 3062 3063 3065 3066 3068 3069 3070 3072 3073
3059 3058 3058 3057 3057 3057 3056 3055 3055 3054 3054 3053 3053 3053 3052 3052 3052 3051 3051 3050 3050 3049 3050 3050 3050 3051 3053 3053 3053 3051 3050 3050 3050 3050 3051 3052 3053 3052 3051 3050 3050 3050 3051 3050 3049 3048 3048 3048 3048 3048 3048 3048 3048 3047 3048 3048 3048 3048 3048 3048 3048 3047 3047 3047 3047 3047 3048 3049 3050 3051 3051 3052 3052 3052 3053 3054 3056 3058 3059 3061 3063 3064 3065 3067 3068 3069
3055 3055 3054 3053 3053 3053 3052 3052 3051 3050 3050 3049 3049 3048 3048 3048 3048 3047 3047 3046 3046 3046 3046 3046 3046 3046 3047 3048 3049 3048 3047 3046 3046 3046 3047 3048 3049 3050 3048 3047 3047 3047 3048 3048 3047 3047 3046 3045 3045 3045 3045 3045 3045 3045 3045 3045 3045 3046 3045 3045 3046 3046 3045 3045 3045 3045 3045 3046 3047 3048 3048 3049 3049 3050 3050 3051 3051 3053 3055 3057 3059 3060 3062 3063 3064 3066
3052 3051 3050 3050 3049 3048 3048 3048 3048 3047 3046 3045 3044 3044 3044 3044 3044 3043 3043 3042 3042 3041 3041 3042 3042 3042 3042 3043 3044 3044 3043 3041 3041 3042 3043 3044 3046 3046 3046 3044 3044 3044 3045 3045 3045 3044 3043 3043 3043 3043 3043 3043 3043 3043 3043 3043 3043 3043 3043 3043 3043 3043 3043 3043 3043 3042 3042 3042 3043 3044 3045 3046 3046 3047 3048 3048 3048 3049 3051 3053 3054 3056 3058 3060 3061 3062
3048 3048 3047 3046 3045 3045 3044 3044 3044 3043 3042 3041 3040 3039 3039 3039 3039 3039 3038 3038 3038 3037 3037 3037 3038 3038 3039 3039 3040 3040 3039 3037 3037 3037 3038 3039 3041 3043 3042 3041 3041 3041 3042 3042 3042 3041 3041 3041 3041 3040 3040 3040 3040 3040 3040 3040 3040 3040 3040 3041 3041 3040 3039 3040 3040 3040 3039 3039 3039 3040 3041 3042 3043 3044 3045 3045 3046 3046 3047 3048 3050 3053 3054 3056 3057 3058
3045 3045 3044 3043 3042 3041 3041 3041 3040 3039 3038 3037 3036 3035 3034 3034 3034 3034 3033 3033 3033 3033 3033 3033 3033 3033 3034 3034 3035 3036 3035 3033 3033 3033 3033 3035 3037 3038 3038 3038 3037 3038 3038 3039 3038 3038 3038 3038 3038 3039 3038 3038 3037 3037 3037 3037 3037 3038 3038 3038 3038 3038 3038 3038 3037 3037 3037 3036 3036 3037 3037 3038 3039 3040 3041 3042 3043 3043 3044 3045 3047 3048 3050 3052 3053 3054
3042 3041 3041 3040 3039 3038 3037 3037 3037 3036 3035 3033 3032 3031 3030 3029 3029 3028 3028 3028 3028 3028 3028 3028 3028 3028 3029 3030 3031 3031 3031 3029 3028 3028 3029 3030 3032 3033 3034 3033 3033 3033 3034 3035 3035 3035 3034 3035 3036 3036 3036 3035 3034 3034 3034 3034 3034 3034 3034 3034 3034 3035 3035 3035 3034 3034 3034 3034 3033 3033 3034 3035 3036 3037 3038 3038 3039 3040 3041 3042 3043 3044 3046 3048 3049 3050
3038 3038 3038 3038 3037 3035 3034 3034 3034 3033 3032 3030 3029 3028 3026 3025 3024 3023 3023 3023 3023 3023 3023 3023 3023 3023 3024 3024 3025 3026 3026 3025 3024 3023 3024 3025 3027 3029 3030 3028 3028 3029 3030 3031 3032 3031 3031 3032 3032 3033 3033 3033 3032 3031 3030 3030 3030 3030 3031 3031 3031 3032 3032 3032 3032 3031 3031 3031 3030 3030 3030 3031 3032 3033 3033 3035 3036 3036 3037 3038 3039 3040 3042 3043 3045 3047
3034 3034 3034 3034 3033 3033 3032 3031 3030 3030 3029 3028 3026 3025 3023 3022 3021 3019 3018 3018 3018 3017 3017 3017 3017 3017 3018 3019 3020 3021 3021 3021 3019 3018 3019 3019 3022 3024 3025 3024 3023 3024 3025 3027 3027 3027 3027 3028 3029 3029 3030 3030 3029 3028 3027 3027 3026 3027 3027 3028 3028 3028 3028 3028 3028 3028 3028 3028 3028 3028 3027 3027 3028 3028 3029 3031 3032 3033 3033 3035 3036 3037 3038 3039 3041 3042
3030 3030 3030 3030 3029 3029 3028 3027 3027 3026 3025 3024 3023 3022 3020 3019 3017 3016 3014 3014 3013 3012 3011 3011 3011 3011 3013 3014 3015 3015 3016 3016 3015 3013 3013 3014 3016 3018 3020 3019 3018 3018 3020 3022 3022 3022 3023 3024 3025 3026 3026 3027 3026 3026 3024 3023 3023 3023 3023 3024 3024 3025 3025 3025 3025 3025 3025 3025 3025 3025 3025 3024 3024 3025 3026 3027 3028 3028 3029 3031 3032 3033 3035 3036 3037 3038
3027 3026 3026 3025 3025 3025 3024 3023 3023 3022 3021 3020 3019 3018 3017 3015 3014 3013 3012 3011 3009 3008 3007 3006 3005 3006 3007 3008 3009 3010 3011 3011 3010 3009 3008 3008 3010 3012 3015 3015 3014 3013 3015 3017 3017 3018 3018 3019 3020 3021 3022 3023 3023 3023 3022 3021 3020 3019 3019 3020 3021 3021 3022 3022 3022 3022 3022 3022 3022 3022 3022 3022 3022 3022 3022 3023 3023 3024 3025 3026 3027 3029 3030 3032 3033 3033
3023 3023 3022 3021 3021 3020 3020 3019 3018 3018 3017 3016 3015 3014 3013 3011 3010 3009 3008 3008 3007 3005 3003 3002 3001 3001 3001 3002 3003 3004 3005 3006 3005 3004 3003 3003 3003 3005 3008 3009 3009 3008 3009 3011 3012 3013 3013 3014 3015 3017 3018 3018 3018 3019 3019 3018 3017 3016 3016 3016 3017 3017 3018 3018 3018 3018 3018 3019 3019 3019 3019 3019 3019 3019 3018 3018 3019 3020 3021 3022 3023 3024 3025 3027 3028 3029
3020 3019 3018 3018 3017 3016 3015 3015 3014 3013 3013 3012 3011 3010 3008 3007 3006 3005 3005 3004 3003 3001 2999 2998 2997 2997 2997 2997 2997 2998 2999 3000 3000 3000 2998 2998 2997 2998 3001 3003 3003 3003 3003 3005 3007 3008 3008 3009 3010 3012 3013 3013 3014 3014 3015 3015 3014 3013 3013 3012 3012 3013 3014 3015 3015 3015 3015 3015 3015 3016 3016 3015 3016 3016 3015 3015 3015 3015 3016 3017 3018 3019 3020 3022 3023 3024
3017 3016 3015 3014 3013 3012 3011 3010 3010 3009 3008 3008 3008 3006 3005 3003 3002 3001 3001 3000 2999 2998 2996 2995 2994 2993 2993 2992 2992 2993 2994 2996 2996 2995 2994 2993 2992 2993 2994 2996 2997 2996 2997 2998 3000 3002 3003 3004 3005 3006 3007 3008 3008 3009 3010 3011 3011 3010 3009 3008 3008 3009 3009 3011 3011 3012 3012 3012 3012 3012 3012 3012 3013 3013 3013 3013 3012 3012 3012 3013 3013 3015 3016 3017 3018 3020
3013 3012 3011 3010 3009 3008 3007 3006 3005 3005 3004 3004 3003 3002 3001 3000 2999 2998 2997 2996 2996 2995 2993 2991 2991 2990 2989 2988 2987 2988 2989 2991 2992 2991 2990 2989 2987 2987 2988 2990 2990 2990 2990 2990 2992 2995 2998 2999 3000 3001 3002 3003 3003 3004 3005 3006 3007 3007 3006 3005 3005 3005 3005 3006 3007 3008 3008 3008 3008 3008 3008 3009 3009 3009 3009 3010 3009 3008 3008 3008 3009 3010 3012 3013 3014 3015
3008 3008 3007 3006 3005 3004 3003 3002 3001 3000 3000 2999 2999 2998 2997 2997 2996 2995 2993 2993 2992 2991 2989 2988 2988 2987 2985 2984 2983 2983 2984 2986 2987 2987 2986 2984 2983 2982 2983 2985 2985 2984 2985 2984 2984 2986 2989 2993 2995 2996 2996 2997 2998 2999 3000 3001 3002 3002 3002 3002 3001 3001 3001 3001 3002 3003 3004 3004 3004 3004 3005 3005 3006 3006 3006 3006 3006 3006 3004 3004 3004 3006 3007 3008 3009 3010
3004 3003 3002 3002 3001 3000 2999 2998 2998 2997 2996 2996 2995 2994 2993 2993 2992 2991 2990 2989 2988 2987 2985 2984 2984 2983 2982 2981 2980 2979 2979 2981 2983 2983 2981 2980 2978 2977 2979 2980 2979 2979 2980 2980 2978 2978 2979 2983 2988 2990 2990 2991 2993 2994 2995 2996 2997 2997 2998 2998 2998 2997 2997 2997 2997 2998 2999 3000 3000 3000 3001 3001 3002 3002 3002 3002 3002 3002 3002 3001 3001 3002 3003 3004 3005 3006
2999 2998 2998 2997 2996 2996 2995 2994 2993 2993 2993 2992 2991 2991 2990 2989 2988 2987 2986 2985 2984 2983 2982 2981 2980 2979 2978 2978 2977 2976 2975 2977 2979 2979 2977 2976 2973 2973 2974 2975 2974 2974 2976 2975 2974 2973 2973 2974 2978 2982 2983 2985 2986 2988 2989 2990 2991 2992 2993 2993 2993 2993 2993 2993 2993 2993 2994 2995 2996 2996 2997 2997 2997 2998 2998 2998 2998 2998 2998 2998 2998 2998 2999 3000 3001 3002
2994 2993 2993 2992 2992 2991 2991 2990 2989 2989 2988 2988 2987 2987 2986 2985 2984 2983 2983 2981 2980 2979 2978 2977 2976 2975 2974 2974 2973 2972 2972 2974 2975 2975 2973 2972 2970 2968 2969 2970 2970 2970 2971 2971 2970 2969 2969 2968 2970 2973 2975 2977 2979 2981 2983 2984 2986 2987 2988 2988 2989 2989 2989 2989 2988 2988 2988 2989 2991 2992 2992 2993 2993 2993 2993 2994 2994 2994 2994 2994 2994 2994 2995 2996 2997 2997
2990 2989 2988 2988 2988 2987 2986 2986 2985 2984 2983 2983 2983 2982 2982 2981 2980 2980 2979 2978 2977 2976 2974 2973 2972 2971 2970 2969 2968 2968 2968 2970 2972 2972 2970 2968 2966 2964 2964 2965 2965 2965 2966 2966 2966 2965 2965 2964 2965 2966 2967 2969 2972 2974 2976 2978 2979 2981 2982 2983 2983 2984 2984 2984 2984 2983 2983 2984 2985 2987 2988 2988 2988 2988 2989 2989 2990 2991 2990 2990 2990 2991 2991 2992 2993 2993
2984 2984 2983 2983 2983 2982 2982 2981 2981 2980 2979 2979 2978 2978 2977 2977 2976 2976 2975 2974 2973 2972 2971 2970 2969 2968 2966 2965 2964 2963 2964 2966 2968 2968 2967 2965 2963 2961 2960 2961 2961 2961 2961 2961 2961 2961 2960 2960 2961 2961 2961 2962 2964 2968 2970 2971 2972 2974 2976 2977 2978 2979 2979 2980 2980 2979 2979 2979 2980 2981 2982 2983 2983 2984 2984 2985 2986 2986 2987 2986 2987 2987 2988 2988 2989 2990
2979 2978 2978 2978 2978 2977 2976 2976 2976 2975 2975 2974 2973 2973 2973 2972 2971 2971 2970 2970 2969 2968 2968 2967 2966 2964 2963 2962 2961 2960 2960 2961 2963 2964 2963 2962 2960 2958 2957 2957 2957 2957 2958 2957 2956 2956 2956 2955 2955 2956 2957 2957 2958 2960 2963 2965 2966 2968 2969 2971 2972 2973 2974 2975 2975 2974 2974 2974 2975 2976 2977 2978 2979 2979 2979 2980 2981 2981 2982 2983 2983 2983 2983 2984 2985 2986
2974 2973 2973 2973 2973 2972 2971 2970 2970 2970 2970 2969 2968 2968 2968 2967 2967 2966 2966 2965 2965 2964 2964 2963 2962 2961 2960 2958 2958 2957 2956 2957 2959 2960 2960 2959 2958 2956 2955 2953 2953 2953 2954 2953 2952 2951 2952 2951 2950 2951 2952 2952 2953 2953 2955 2958 2959 2961 2963 2964 2966 2967 2968 2969 2970 2970 2969 2970 2970 2971 2972 2973 2974 2974 2975 2975 2976 2976 2977 2978 2978 2978 2979 2980 2981 2982
2970 2969 2968 2968 2968 2967 2966 2966 2965 2965 2965 2964 2963 2963 2963 2962 2962 2961 2961 2961 2960 2960 2959 2959 2958 2957 2957 2956 2954 2953 2953 2954 2955 2956 2956 2956 2955 2954 2952 2950 2950 2950 2950 2950 2948 2948 2948 2947 2946 2945 2946 2947 2948 2949 2951 2952 2953 2954 2955 2957 2959 2961 2963 2964 2965 2965 2965 2965 2965 2966 2967 2968 2969 2970 2970 2971 2971 2972 2973 2973 2974 2974 2975 2976 2977 2978
2966 2966 2965 2964 2963 2963 2962 2962 2961 2960 2960 2960 2959 2958 2958 2958 2958 2958 2957 2957 2956 2956 2955 2955 2954 2953 2953 2952 2951 2951 2950 2950 2951 2952 2952 2952 2952 2951 2950 2948 2947 2947 2947 2946 2946 2945 2944 2943 2942 2941 2941 2941 2942 2944 2946 2947 2948 2948 2948 2950 2953 2956 2957 2958 2959 2959 2960 2960 2960 2961 2962 2963 2964 2965 2965 2966 2967 2968 2968 2969 2969 2970 2970 2971 2973 2974
2963 2962 2961 2961 2960 2960 2959 2958 2957 2957 2956 2955 2955 2954 2954 2954 2954 2953 2953 2953 2953 2952 2952 2951 2950 2949 2949 2948 2948 2948 2947 2947 2948 2948 2949 2949 2948 2948 2947 2946 2945 2944 2943 2943 2943 2942 2941 2940 2938 2938 2938 2938 2937 2938 2939 2941 2943 2943 2943 2944 2946 2948 2950 2952 2953 2954 2954 2955 2955 2956 2957 2958 2959 2960 2961 2962 2962 2963 2964 2964 2965 2966 2967 2967 2968 2969
2960 2959 2958 2957 2957 2957 2956 2955 2954 2953 2952 2952 2951 2950 2950 2950 2949 2949 2949 2948 2948 2948 2948 2947 2946 2946 2945 2944 2944 2944 2944 2944 2944 2945 2945 2945 2945 2945 2944 2943 2942 2941 2940 2939 2938 2938 2937 2937 2935 2934 2934 2934 2933 2933 2933 2935 2937 2938 2939 2940 2940 2941 2942 2945 2948 2949 2949 2950 2950 2951 2951 2952 2954 2955 2956 2957 2958 2958 2959 2960 2961 2962 2963 2964 2964 2965
2957 2956 2955 2954 2954 2953 2952 2951 2951 2950 2949 2948 2948 2947 2946 2946 2945 2945 2944 2944 2943 2943 2943 2943 2943 2941 2940 2940 2940 2941 2941 2941 2942 2942 2942 2942 2941 2941 2940 2939 2938 2938 2937 2936 2935 2934 2933 2933 2933 2932 2931 2931 2930 2929 2929 2930 2932 2933 2935 2935 2934 2934 2936 2940 2942 2943 2943 2944 2945 2946 2946 2947 2948 2949 2951 2952 2953 2954 2955 2956 2957 2958 2959 2960 2960 2961
2954 2953 2952 2951 2951 2950 2949 2948 2948 2947 2946 2945 2944 2943 2943 2943 2942 2941 2940 2939 2938 2938 2939 2938 2938 2937 2936 2935 2936 2937 2938 2938 2939 2939 2938 2938 2938 2938 2937 2936 2935 2934 2934 2933 2931 2930 2929 2930 2930 2929 2928 2928 2927 2926 2925 2925 2926 2928 2930 2930 2929 2930 2932 2934 2935 2935 2936 2938 2939 2940 2941 2942 2943 2944 2945 2946 2948 2949 2951 2952 2953 2953 2955 2956 2956 2957
2950 2949 2949 2948 2948 2947 2946 2945 2944 2943 2943 2942 2941 2940 2940 2939 2939 2938 2937 2935 2934 2934 2934 2934 2933 2932 2932 2931 2931 2932 2933 2935 2935 2936 2936 2935 2935 2934 2934 2933 2932 2931 2931 2930 2928 2927 2926 2926 2926 2926 2925 2924 2923 2923 2922 2921 2922 2923 2925 2925 2926 2926 2927 2926 2927 2928 2930 2932 2933 2935 2936 2937 2937 2938 2939 2941 2943 2944 2946 2947 2948 2949 2950 2951 2952 2953
2947 2946 2945 2945 2944 2943 2943 2942 2941 2940 2939 2938 2938 2937 2937 2936 2936 2935 2933 2932 2931 2930 2930 2930 2929 2928 2928 2927 2927 2928 2929 2930 2931 2932 2932 2932 2932 2931 2930 2929 2929 2928 2927 2927 2925 2924 2923 2923 2922 2922 2921 2921 2920 2919 2918 2918 2918 2919 2920 2921 2922 2922 2921 2921 2922 2924 2925 2925 2927 2929 2931 2931 2932 2933 2934 2936 2938 2939 2941 2942 2944 2945 2946 2947 2948 2949
2943 2943 2942 2941 2941 2940 2939 2938 2938 2937 2936 2935 2934 2934 2933 2933 2932 2931 2930 2929 2928 2927 2927 2926 2926 2925 2924 2923 2923 2924 2925 2926 2926 2927 2928 2928 2928 2928 2927 2926 2925 2924 2923 2923 2922 2921 2920 2920 2918 2918 2917 2917 2917 2916 2915 2915 2915 2915 2916 2917 2917 2917 2916 2917 2918 2919 2919 2918 2919 2922 2924 2926 2926 2927 2928 2930 2932 2933 2935 2938 2939 2941 2942 2943 2944 2945
2940 2939 2939 2938 2937 2936 2936 2935 2934 2933 2933 2931 2931 2930 2930 2930 2929 2928 2926 2925 2925 2924 2923 2923 2923 2922 2921 2920 2920 2921 2922 2922 2922 2922 2923 2924 2924 2924 2923 2923 2922 2921 2920 2919 2918 2917 2917 2916 2916 2915 2914 2914 2913 2912 2911 2912 2913 2913 2912 2912 2913 2913 2913 2913 2913 2914 2913 2913 2914 2916 2918 2920 2922 2922 2923 2924 2925 2928 2930 2933 2935 2936 2938 2939 2940 2941
2937 2936 2935 2934 2934 2933 2932 2931 2931 2930 2929 2928 2927 2927 2927 2926 2926 2924 2923 2922 2922 2922 2921 2920 2919 2918 2918 2918 2918 2918 2918 2917 2917 2918 2918 2920 2920 2920 2920 2919 2918 2917 2916 2915 2914 2914 2913 2913 2913 2912 2912 2911 2910 2908 2908 2909 2910 2910 2909 2908 2908 2909 2909 2908 2908 2909 2909 2909 2910 2911 2913 2915 2916 2917 2917 2918 2920 2922 2925 2927 2930 2932 2933 2935 2936 2937
2934 2933 2932 2931 2930 2930 2929 2928 2928 2927 2926 2925 2924 2923 2923 2923 2923 2922 2921 2919 2918 2918 2917 2917 2916 2915 2915 2914 2914 2914 2914 2914 2914 2914 2914 2915 2916 2916 2916 2915 2914 2913 2912 2912 2911 2910 2909 2909 2908 2909 2909 2908 2907 2906 2905 2906 2907 2907 2906 2905 2906 2905 2905 2904 2904 2905 2905 2905 2905 2906 2908 2909 2911 2912 2912 2913 2915 2917 2919 2922 2924 2927 2929 2930 2932 2933
2932 2931 2930 2928 2928 2927 2926 2925 2924 2923 2923 2922 2921 2920 2920 2919 2919 2918 2918 2916 2915 2915 2914 2913 2913 2912 2912 2911 2911 2911 2911 2911 2910 2910 2911 2911 2912 2912 2911 2911 2910 2909 2908 2908 2907 2906 2906 2905 2904 2904 2905 2906 2905 2904 2903 2902 2902 2903 2903 2903 2902 2902 2901 2900 2900 2901 2902 2901 2901 2902 2903 2904 2906 2907 2908 2910 2910 2911 2913 2916 2919 2922 2924 2926 2927 2928
2928 2928 2927 2926 2925 2924 2923 2922 2921 2920 2919 2919 2918 2917 2916 2916 2915 2915 2914 2913 2913 2912 2911 2911 2910 2909 2909 2908 2908 2908 2908 2908 2907 2907 2907 2908 2908 2908 2907 2907 2906 2906 2905 2903 2903 2902 2902 2901 2900 2900 2901 2903 2903 2902 2901 2899 2898 2898 2899 2898 2898 2898 2898 2897 2897 2897 2898 2897 2897 2898 2898 2900 2901 2903 2905 2905 2905 2905 2907 2910 2914 2917 2920 2922 2923 2924